Time,TemperatureF,DewpointF,PressureIn,WindDirection,WindDirectionDegrees,WindSpeedMPH,WindSpeedGustMPH,Humidity,HourlyPrecipIn,Conditions,Clouds,dailyrainin,SolarRadiationWatts/m^2,SoftwareType,DateUTC
2013-05-18 00:01:00,53.6,50.4,30.00,SSE,148,0.0,0.0,89,0.08,,OVC055,0.00,0.00,VWS V14.01,2013-05-18 05:01:00,
2013-05-18 00:06:00,53.5,50.3,30.00,ESE,109,1.0,4.0,89,0.09,,OVC055,0.01,0.00,VWS V14.01,2013-05-18 05:06:00,
2013-05-18 00:11:00,53.5,50.3,30.00,ESE,109,1.0,4.0,89,0.09,,OVC055,0.01,0.00,VWS V14.01,2013-05-18 05:11:00,
2013-05-18 00:16:00,53.5,50.3,30.00,ESE,111,0.0,4.0,89,0.09,,OVC055,0.01,0.00,VWS V14.01,2013-05-18 05:16:00,
2013-05-18 00:21:00,53.5,50.3,30.00,ESE,105,0.0,4.0,89,0.09,,OVC055,0.01,0.00,VWS V14.01,2013-05-18 05:21:00,
2013-05-18 00:26:00,53.5,50.3,30.00,East,80,2.0,4.0,89,0.09,,OVC055,0.01,0.00,VWS V14.01,2013-05-18 05:26:00,
2013-05-18 00:31:00,53.5,50.3,30.00,East,80,0.0,0.0,89,0.09,,OVC055,0.01,0.00,VWS V14.01,2013-05-18 05:31:00,
2013-05-18 00:36:00,53.5,50.3,29.99,East,80,0.0,2.0,89,0.09,,OVC055,0.01,0.00,VWS V14.01,2013-05-18 05:36:00,
2013-05-18 00:41:00,53.4,50.2,30.00,ESE,119,2.0,3.0,89,0.09,,OVC055,0.01,0.00,VWS V14.01,2013-05-18 05:41:00,
2013-05-18 00:46:00,53.4,50.2,29.99,ENE,65,0.0,3.0,89,0.15,,OVC055,0.07,0.00,VWS V14.01,2013-05-18 05:46:00,
2013-05-18 00:51:00,53.4,50.2,29.99,East,88,2.0,3.0,89,0.20,,OVC055,0.12,0.00,VWS V14.01,2013-05-18 05:51:00,
2013-05-18 00:56:00,53.3,50.2,29.99,East,88,1.0,3.0,89,0.21,,OVC055,0.13,0.00,VWS V14.01,2013-05-18 05:56:00,
2013-05-18 01:01:00,53.3,50.2,29.99,ENE,76,1.0,1.0,89,0.13,,SCT070,0.13,0.00,VWS V14.01,2013-05-18 06:01:00,
2013-05-18 01:06:00,53.3,50.2,29.99,ENE,76,0.0,2.0,89,0.13,,SCT070,0.13,0.00,VWS V14.01,2013-05-18 06:06:00,
2013-05-18 01:11:00,53.3,50.2,29.99,ENE,76,1.0,2.0,89,0.13,,SCT070,0.13,0.00,VWS V14.01,2013-05-18 06:11:00,
2013-05-18 01:16:00,53.3,50.2,29.98,ENE,77,2.0,2.0,89,0.13,,SCT070,0.13,0.00,VWS V14.01,2013-05-18 06:16:00,
2013-05-18 01:21:00,53.2,50.0,29.98,ESE,120,1.0,5.0,89,0.13,,SCT070,0.13,0.00,VWS V14.01,2013-05-18 06:21:00,
2013-05-18 01:26:00,53.2,50.0,29.98,ESE,113,2.0,5.0,89,0.13,,SCT070,0.13,0.00,VWS V14.01,2013-05-18 06:26:00,
2013-05-18 01:31:00,53.2,50.0,29.98,ESE,104,1.0,3.0,89,0.12,,SCT070,0.13,0.00,VWS V14.01,2013-05-18 06:31:00,
2013-05-18 01:36:00,53.1,50.0,29.98,East,79,0.0,3.0,89,0.12,,SCT070,0.13,0.00,VWS V14.01,2013-05-18 06:36:00,
2013-05-18 01:41:00,53.1,50.0,29.98,East,90,0.0,3.0,89,0.12,,SCT070,0.13,0.00,VWS V14.01,2013-05-18 06:41:00,
2013-05-18 01:46:00,53.1,50.0,29.98,ESE,110,0.0,3.0,89,0.12,,SCT070,0.13,0.00,VWS V14.01,2013-05-18 06:46:00,
2013-05-18 01:51:00,53.1,50.0,29.98,SE,139,1.0,3.0,89,0.12,,SCT070,0.13,0.00,VWS V14.01,2013-05-18 06:51:00,
2013-05-18 01:56:00,53.0,49.8,29.98,NE,49,0.0,9.0,89,0.12,,SCT070,0.13,0.00,VWS V14.01,2013-05-18 06:56:00,
2013-05-18 02:01:00,53.0,49.8,29.98,SSE,158,0.0,2.0,89,0.00,,BKN095,0.13,0.00,VWS V14.01,2013-05-18 07:01:00,
2013-05-18 02:06:00,53.0,49.8,29.98,East,88,1.0,3.0,89,0.00,,BKN095,0.13,0.00,VWS V14.01,2013-05-18 07:06:00,
2013-05-18 02:11:00,53.0,49.8,29.98,East,96,1.0,3.0,89,0.00,,BKN095,0.13,0.00,VWS V14.01,2013-05-18 07:11:00,
2013-05-18 02:16:00,53.0,49.8,29.98,ESE,107,1.0,3.0,89,0.00,,BKN095,0.13,0.00,VWS V14.01,2013-05-18 07:16:00,
2013-05-18 02:21:00,53.0,49.8,29.98,ESE,107,0.0,3.0,89,0.00,,BKN095,0.13,0.00,VWS V14.01,2013-05-18 07:21:00,
2013-05-18 02:26:00,53.0,49.8,29.97,East,101,2.0,3.0,89,0.00,,BKN095,0.13,0.00,VWS V14.01,2013-05-18 07:26:00,
2013-05-18 02:31:00,53.0,49.8,29.97,ESE,107,2.0,4.0,89,0.00,,BKN095,0.13,0.00,VWS V14.01,2013-05-18 07:31:00,
2013-05-18 02:36:00,53.0,49.8,29.97,East,94,1.0,5.0,89,0.00,,BKN095,0.13,0.00,VWS V14.01,2013-05-18 07:36:00,
2013-05-18 02:41:00,53.0,49.8,29.97,ENE,74,0.0,8.0,89,0.00,,BKN095,0.13,0.00,VWS V14.01,2013-05-18 07:41:00,
2013-05-18 02:46:00,53.0,49.8,29.97,ESE,116,1.0,8.0,89,0.00,,BKN095,0.13,0.00,VWS V14.01,2013-05-18 07:46:00,
2013-05-18 02:51:00,53.0,49.8,29.97,ESE,113,1.0,8.0,89,0.00,,BKN095,0.13,0.00,VWS V14.01,2013-05-18 07:51:00,
2013-05-18 02:56:00,53.1,50.0,29.97,ESE,111,4.0,8.0,89,0.00,,BKN095,0.13,0.00,VWS V14.01,2013-05-18 07:56:00,
2013-05-18 03:01:00,53.1,50.0,29.97,East,98,3.0,3.0,89,0.00,,BKN095,0.13,0.00,VWS V14.01,2013-05-18 08:01:00,
2013-05-18 03:06:00,53.1,50.0,29.97,ESE,105,0.0,3.0,89,0.00,,BKN095,0.13,0.00,VWS V14.01,2013-05-18 08:06:00,
2013-05-18 03:11:00,53.1,50.0,29.97,ESE,121,1.0,4.0,89,0.00,,BKN095,0.13,0.00,VWS V14.01,2013-05-18 08:11:00,
2013-05-18 03:16:00,53.1,50.0,29.97,ESE,121,0.0,4.0,89,0.00,,BKN095,0.13,0.00,VWS V14.01,2013-05-18 08:16:00,
2013-05-18 03:21:00,53.1,50.0,29.97,SE,132,0.0,4.0,89,0.00,,BKN095,0.13,0.00,VWS V14.01,2013-05-18 08:21:00,
2013-05-18 03:26:00,53.0,49.8,29.96,SE,132,1.0,4.0,89,0.00,,BKN095,0.13,0.00,VWS V14.01,2013-05-18 08:26:00,
2013-05-18 03:31:00,53.0,49.8,29.96,SE,132,0.0,1.0,89,0.00,,BKN095,0.13,0.00,VWS V14.01,2013-05-18 08:31:00,
2013-05-18 03:36:00,53.0,49.8,29.96,SE,132,1.0,3.0,89,0.00,,BKN095,0.13,0.00,VWS V14.01,2013-05-18 08:36:00,
2013-05-18 03:41:00,53.0,49.8,29.96,ENE,62,1.0,5.0,89,0.00,,BKN095,0.13,0.00,VWS V14.01,2013-05-18 08:41:00,
2013-05-18 03:46:00,52.9,49.8,29.96,East,95,2.0,5.0,89,0.00,,BKN095,0.13,0.00,VWS V14.01,2013-05-18 08:46:00,
2013-05-18 03:51:00,52.9,49.8,29.95,East,99,1.0,7.0,89,0.00,,BKN095,0.13,0.00,VWS V14.01,2013-05-18 08:51:00,
2013-05-18 03:56:00,52.8,49.7,29.95,ESE,114,1.0,7.0,89,0.00,,BKN095,0.13,0.00,VWS V14.01,2013-05-18 08:56:00,
2013-05-18 04:01:00,52.8,49.7,29.95,ESE,115,0.0,3.0,89,0.00,,BKN095,0.13,0.00,VWS V14.01,2013-05-18 09:01:00,
2013-05-18 04:06:00,52.8,49.7,29.96,East,101,0.0,3.0,89,0.00,,BKN095,0.13,0.00,VWS V14.01,2013-05-18 09:06:00,
2013-05-18 04:11:00,52.8,49.7,29.96,SE,128,2.0,4.0,89,0.00,,BKN095,0.13,0.00,VWS V14.01,2013-05-18 09:11:00,
2013-05-18 04:16:00,52.7,49.5,29.96,East,97,3.0,6.0,89,0.00,,BKN095,0.13,0.00,VWS V14.01,2013-05-18 09:16:00,
2013-05-18 04:21:00,52.7,49.5,29.96,East,98,0.0,6.0,89,0.00,,FEW095,0.13,0.00,VWS V14.01,2013-05-18 09:21:00,
2013-05-18 04:26:00,52.7,49.5,29.96,East,98,1.0,6.0,89,0.00,,FEW095,0.13,0.00,VWS V14.01,2013-05-18 09:26:00,
2013-05-18 04:31:00,52.7,49.5,29.95,ESE,109,2.0,3.0,89,0.00,,FEW095,0.13,0.00,VWS V14.01,2013-05-18 09:31:00,
2013-05-18 04:36:00,52.6,49.5,29.95,ESE,109,2.0,5.0,89,0.00,,FEW095,0.13,0.00,VWS V14.01,2013-05-18 09:36:00,
2013-05-18 04:41:00,52.6,49.5,29.95,ESE,107,2.0,5.0,89,0.00,,FEW095,0.13,0.00,VWS V14.01,2013-05-18 09:41:00,
2013-05-18 04:46:00,52.6,49.5,29.96,ESE,111,2.0,5.0,89,0.00,,FEW095,0.13,0.00,VWS V14.01,2013-05-18 09:46:00,
2013-05-18 04:51:00,52.6,49.5,29.96,ESE,111,1.0,5.0,89,0.00,,FEW095,0.13,0.00,VWS V14.01,2013-05-18 09:51:00,
2013-05-18 04:56:00,52.5,49.4,29.95,ESE,111,1.0,5.0,89,0.00,,FEW095,0.13,0.00,VWS V14.01,2013-05-18 09:56:00,
2013-05-18 05:01:00,52.5,49.4,29.96,ESE,111,2.0,2.0,89,0.00,,CLR,0.13,0.00,VWS V14.01,2013-05-18 10:01:00,
2013-05-18 05:06:00,52.5,49.4,29.96,ESE,113,1.0,5.0,89,0.00,,CLR,0.13,0.00,VWS V14.01,2013-05-18 10:06:00,
2013-05-18 05:11:00,52.5,49.4,29.96,ESE,113,1.0,5.0,89,0.00,,CLR,0.13,0.00,VWS V14.01,2013-05-18 10:11:00,
2013-05-18 05:16:00,52.4,49.3,29.95,ESE,120,1.0,5.0,89,0.00,,CLR,0.13,0.00,VWS V14.01,2013-05-18 10:16:00,
2013-05-18 05:21:00,52.4,49.3,29.95,ESE,122,5.0,5.0,89,0.00,,CLR,0.13,0.00,VWS V14.01,2013-05-18 10:21:00,
2013-05-18 05:26:00,52.4,49.3,29.95,SE,125,1.0,5.0,89,0.00,,CLR,0.13,0.00,VWS V14.01,2013-05-18 10:26:00,
2013-05-18 05:31:00,52.4,49.3,29.95,East,100,0.0,3.0,89,0.00,,CLR,0.13,0.00,VWS V14.01,2013-05-18 10:31:00,
2013-05-18 05:36:00,52.3,49.2,29.96,ESE,103,1.0,3.0,89,0.00,,CLR,0.13,0.00,VWS V14.01,2013-05-18 10:36:00,
2013-05-18 05:41:00,52.4,49.3,29.96,ESE,122,1.0,4.0,89,0.00,,CLR,0.13,0.00,VWS V14.01,2013-05-18 10:41:00,
2013-05-18 05:46:00,52.3,49.2,29.96,ESE,122,1.0,4.0,89,0.00,,CLR,0.13,0.00,VWS V14.01,2013-05-18 10:46:00,
2013-05-18 05:51:00,52.3,49.2,29.96,ESE,117,1.0,5.0,89,0.00,,CLR,0.13,0.00,VWS V14.01,2013-05-18 10:51:00,
2013-05-18 05:56:00,52.3,49.2,29.96,SE,132,0.0,5.0,89,0.00,,CLR,0.13,5.00,VWS V14.01,2013-05-18 10:56:00,
2013-05-18 06:01:00,52.3,49.2,29.96,SE,132,1.0,3.0,89,0.00,,FEW120,0.13,7.00,VWS V14.01,2013-05-18 11:01:00,
2013-05-18 06:06:00,52.3,49.2,29.96,ESE,117,1.0,4.0,89,0.00,,FEW120,0.13,9.00,VWS V14.01,2013-05-18 11:06:00,
2013-05-18 06:11:00,52.3,49.2,29.96,ESE,103,3.0,4.0,89,0.00,,FEW120,0.13,12.00,VWS V14.01,2013-05-18 11:11:00,
2013-05-18 06:16:00,52.3,49.2,29.97,SE,126,2.0,4.0,89,0.00,,FEW120,0.13,16.00,VWS V14.01,2013-05-18 11:16:00,
2013-05-18 06:21:00,52.3,49.2,29.97,ESE,117,2.0,4.0,89,0.00,,FEW120,0.13,18.00,VWS V14.01,2013-05-18 11:21:00,
2013-05-18 06:26:00,52.4,49.3,29.97,ESE,117,1.0,5.0,89,0.00,,FEW120,0.13,18.00,VWS V14.01,2013-05-18 11:26:00,
2013-05-18 06:32:00,52.4,49.3,29.97,SE,130,1.0,3.0,89,0.00,,FEW120,0.13,23.00,VWS V14.01,2013-05-18 11:32:00,
2013-05-18 06:37:00,52.4,49.3,29.97,ESE,115,2.0,4.0,89,0.00,,FEW120,0.13,25.00,VWS V14.01,2013-05-18 11:37:00,
2013-05-18 06:42:00,52.4,49.3,29.97,ESE,116,2.0,5.0,89,0.00,,FEW120,0.13,25.00,VWS V14.01,2013-05-18 11:42:00,
2013-05-18 06:47:00,52.4,49.3,29.97,SE,130,0.0,5.0,89,0.00,,FEW120,0.13,26.00,VWS V14.01,2013-05-18 11:47:00,
2013-05-18 06:52:00,52.4,49.3,29.97,ESE,106,1.0,5.0,89,0.00,,FEW120,0.13,28.00,VWS V14.01,2013-05-18 11:52:00,
2013-05-18 06:57:00,52.5,49.4,29.97,ESE,106,1.0,5.0,89,0.00,,FEW120,0.13,39.00,VWS V14.01,2013-05-18 11:57:00,
2013-05-18 07:01:00,52.5,49.4,29.97,ESE,106,0.0,3.0,89,0.00,,FEW120,0.13,53.00,VWS V14.01,2013-05-18 12:01:00,
2013-05-18 07:07:00,52.6,49.5,29.97,ESE,123,2.0,6.0,89,0.00,,FEW120,0.13,53.00,VWS V14.01,2013-05-18 12:07:00,
2013-05-18 07:12:00,52.6,49.5,29.97,ESE,123,0.0,6.0,89,0.00,,FEW120,0.13,49.00,VWS V14.01,2013-05-18 12:12:00,
2013-05-18 07:17:00,52.7,49.5,29.97,ESE,116,1.0,6.0,89,0.00,,FEW120,0.13,51.00,VWS V14.01,2013-05-18 12:17:00,
2013-05-18 07:22:00,52.7,49.5,29.98,ESE,117,3.0,6.0,89,0.00,,FEW120,0.13,51.00,VWS V14.01,2013-05-18 12:22:00,
2013-05-18 07:27:00,52.8,49.3,29.98,ENE,76,2.0,6.0,88,0.00,,FEW120,0.13,47.00,VWS V14.01,2013-05-18 12:27:00,
2013-05-18 07:32:00,52.9,49.5,29.98,East,82,0.0,3.0,88,0.00,,FEW120,0.13,56.00,VWS V14.01,2013-05-18 12:32:00,
2013-05-18 07:37:00,53.0,49.8,29.98,SE,124,0.0,3.0,89,0.00,,FEW120,0.13,70.00,VWS V14.01,2013-05-18 12:37:00,
2013-05-18 07:42:00,53.1,50.0,29.98,SE,124,0.0,3.0,89,0.00,,FEW120,0.13,65.00,VWS V14.01,2013-05-18 12:42:00,
2013-05-18 07:47:00,53.1,49.7,29.98,ESE,121,1.0,3.0,88,0.00,,FEW120,0.13,54.00,VWS V14.01,2013-05-18 12:47:00,
2013-05-18 07:52:00,53.2,49.7,29.98,SE,136,0.0,3.0,88,0.00,,FEW120,0.13,62.00,VWS V14.01,2013-05-18 12:52:00,
2013-05-18 07:57:00,53.2,50.0,29.98,ESE,122,1.0,3.0,89,0.00,,FEW120,0.13,79.00,VWS V14.01,2013-05-18 12:57:00,
2013-05-18 08:02:00,53.3,49.8,29.97,ESE,122,2.0,3.0,88,0.00,,FEW120,0.13,91.00,VWS V14.01,2013-05-18 13:02:00,
2013-05-18 08:07:00,53.5,50.0,29.98,ESE,123,1.0,4.0,88,0.00,,FEW120,0.13,97.00,VWS V14.01,2013-05-18 13:07:00,
2013-05-18 08:12:00,53.6,50.1,29.98,ESE,123,1.0,4.0,88,0.00,,FEW120,0.13,104.00,VWS V14.01,2013-05-18 13:12:00,
2013-05-18 08:17:00,53.7,50.2,29.98,ESE,123,0.0,4.0,88,0.00,,FEW120,0.13,104.00,VWS V14.01,2013-05-18 13:17:00,
2013-05-18 08:22:00,53.9,50.4,29.98,ESE,123,1.0,4.0,88,0.00,,BKN120,0.13,102.00,VWS V14.01,2013-05-18 13:22:00,
2013-05-18 08:27:00,54.0,50.2,29.98,ESE,112,2.0,4.0,87,0.00,,BKN120,0.13,98.00,VWS V14.01,2013-05-18 13:27:00,
2013-05-18 08:32:00,54.1,50.3,29.98,ESE,108,1.0,7.0,87,0.00,,BKN120,0.13,109.00,VWS V14.01,2013-05-18 13:32:00,
2013-05-18 08:37:00,54.2,50.4,29.98,SE,138,0.0,7.0,87,0.00,,BKN120,0.13,123.00,VWS V14.01,2013-05-18 13:37:00,
2013-05-18 08:42:00,54.3,50.5,29.98,ESE,113,1.0,7.0,87,0.00,,BKN120,0.13,132.00,VWS V14.01,2013-05-18 13:42:00,
2013-05-18 08:47:00,54.5,50.7,29.98,ESE,102,2.0,7.0,87,0.00,,BKN120,0.13,132.00,VWS V14.01,2013-05-18 13:47:00,
2013-05-18 08:52:00,54.6,50.8,29.98,ESE,123,2.0,7.0,87,0.00,,BKN120,0.13,144.00,VWS V14.01,2013-05-18 13:52:00,
2013-05-18 08:57:00,54.8,51.0,29.97,East,100,0.0,7.0,87,0.00,,BKN120,0.13,149.00,VWS V14.01,2013-05-18 13:57:00,
2013-05-18 09:02:00,54.9,51.1,29.98,ESE,118,0.0,3.0,87,0.00,,CLR,0.13,153.00,VWS V14.01,2013-05-18 14:02:00,
2013-05-18 09:07:00,55.1,51.0,29.98,ESE,118,1.0,3.0,86,0.00,,CLR,0.13,162.00,VWS V14.01,2013-05-18 14:07:00,
2013-05-18 09:12:00,55.3,51.2,29.98,SE,143,0.0,3.0,86,0.00,,CLR,0.13,185.00,VWS V14.01,2013-05-18 14:12:00,
2013-05-18 09:17:00,55.6,51.5,29.98,SE,129,4.0,4.0,86,0.00,,CLR,0.13,141.00,VWS V14.01,2013-05-18 14:17:00,
2013-05-18 09:22:00,55.6,51.2,29.98,ESE,118,2.0,7.0,85,0.00,,CLR,0.13,128.00,VWS V14.01,2013-05-18 14:22:00,
2013-05-18 09:27:00,55.7,51.6,29.97,SE,137,4.0,7.0,86,0.00,,CLR,0.13,172.00,VWS V14.01,2013-05-18 14:27:00,
2013-05-18 09:32:00,55.9,51.5,29.98,ESE,115,1.0,6.0,85,0.00,,CLR,0.13,220.00,VWS V14.01,2013-05-18 14:32:00,
2013-05-18 09:37:00,56.2,52.1,29.98,ESE,105,1.0,6.0,86,0.00,,CLR,0.13,172.00,VWS V14.01,2013-05-18 14:37:00,
2013-05-18 09:42:00,56.4,52.3,29.98,SE,138,3.0,6.0,86,0.00,,CLR,0.13,151.00,VWS V14.01,2013-05-18 14:42:00,
2013-05-18 09:47:00,56.4,52.0,29.99,South,182,3.0,6.0,85,0.00,,CLR,0.13,76.00,VWS V14.01,2013-05-18 14:47:00,
2013-05-18 09:52:00,56.4,52.0,29.98,SSE,150,1.0,6.0,85,0.00,,CLR,0.13,93.00,VWS V14.01,2013-05-18 14:52:00,
2013-05-18 09:57:00,56.5,52.0,29.98,ESE,110,1.0,6.0,85,0.00,,CLR,0.13,120.00,VWS V14.01,2013-05-18 14:57:00,
2013-05-18 10:02:00,56.6,52.2,29.98,ESE,121,2.0,4.0,85,0.00,,OVC070,0.13,134.00,VWS V14.01,2013-05-18 15:02:00,
2013-05-18 10:07:00,56.7,52.2,29.98,ESE,121,0.0,4.0,85,0.00,,OVC070,0.13,137.00,VWS V14.01,2013-05-18 15:07:00,
2013-05-18 10:12:00,56.9,52.4,29.97,ESE,121,1.0,4.0,85,0.00,,OVC070,0.13,130.00,VWS V14.01,2013-05-18 15:12:00,
2013-05-18 10:17:00,57.1,52.6,29.97,ESE,117,2.0,4.0,85,0.00,,OVC070,0.13,132.00,VWS V14.01,2013-05-18 15:17:00,
2013-05-18 10:22:00,57.2,52.7,29.97,ESE,119,2.0,4.0,85,0.00,,OVC070,0.13,163.00,VWS V14.01,2013-05-18 15:22:00,
2013-05-18 10:27:00,57.4,52.9,29.97,ESE,105,1.0,5.0,85,0.00,,OVC070,0.13,185.00,VWS V14.01,2013-05-18 15:27:00,
2013-05-18 10:32:00,57.6,52.8,29.97,ESE,114,1.0,3.0,84,0.00,,OVC070,0.13,183.00,VWS V14.01,2013-05-18 15:32:00,
2013-05-18 10:37:00,57.8,53.0,29.97,SE,130,0.0,4.0,84,0.00,,OVC070,0.13,167.00,VWS V14.01,2013-05-18 15:37:00,
2013-05-18 10:42:00,58.0,53.2,29.97,SE,127,1.0,4.0,84,0.00,,OVC070,0.13,127.00,VWS V14.01,2013-05-18 15:42:00,
2013-05-18 10:47:00,58.1,53.0,29.97,ESE,120,2.0,4.0,83,0.00,,OVC070,0.13,123.00,VWS V14.01,2013-05-18 15:47:00,
2013-05-18 10:52:00,58.2,53.4,29.97,East,98,0.0,4.0,84,0.00,,OVC070,0.13,116.00,VWS V14.01,2013-05-18 15:52:00,
2013-05-18 10:57:00,58.3,53.5,29.98,East,101,0.0,4.0,84,0.00,,OVC070,0.13,105.00,VWS V14.01,2013-05-18 15:57:00,
2013-05-18 11:02:00,58.5,53.7,29.98,East,101,0.0,2.0,84,0.00,,OVC080,0.13,120.00,VWS V14.01,2013-05-18 16:02:00,
2013-05-18 11:07:00,58.6,53.8,29.97,East,101,0.0,2.0,84,0.00,,OVC080,0.13,167.00,VWS V14.01,2013-05-18 16:07:00,
2013-05-18 11:12:00,58.9,54.1,29.98,East,101,0.0,3.0,84,0.00,,OVC080,0.13,148.00,VWS V14.01,2013-05-18 16:12:00,
2013-05-18 11:17:00,59.1,54.3,29.98,East,101,0.0,3.0,84,0.00,,OVC080,0.13,130.00,VWS V14.01,2013-05-18 16:17:00,
2013-05-18 11:22:00,59.3,54.2,29.97,South,178,0.0,6.0,83,0.00,,OVC080,0.13,139.00,VWS V14.01,2013-05-18 16:22:00,
2013-05-18 11:27:00,59.5,54.7,29.97,SSE,167,0.0,6.0,84,0.00,,OVC080,0.13,176.00,VWS V14.01,2013-05-18 16:27:00,
2013-05-18 11:32:00,59.7,54.5,29.97,ESE,119,0.0,3.0,83,0.00,,OVC080,0.13,162.00,VWS V14.01,2013-05-18 16:32:00,
2013-05-18 11:37:00,59.9,54.7,29.97,ESE,120,0.0,4.0,83,0.00,,OVC080,0.13,144.00,VWS V14.01,2013-05-18 16:37:00,
2013-05-18 11:42:00,60.0,54.5,29.97,ESE,120,0.0,4.0,82,0.00,,OVC080,0.13,113.00,VWS V14.01,2013-05-18 16:42:00,
2013-05-18 11:47:00,60.1,54.6,29.97,SE,125,2.0,4.0,82,0.00,,OVC080,0.13,109.00,VWS V14.01,2013-05-18 16:47:00,
2013-05-18 11:52:00,60.2,55.0,29.98,South,190,3.0,6.0,83,0.00,,OVC080,0.13,121.00,VWS V14.01,2013-05-18 16:52:00,
2013-05-18 11:57:00,60.4,55.2,29.97,South,170,2.0,6.0,83,0.00,,OVC080,0.13,139.00,VWS V14.01,2013-05-18 16:57:00,
2013-05-18 12:02:00,60.5,55.3,29.97,South,186,0.0,4.0,83,0.00,,BKN085,0.13,158.00,VWS V14.01,2013-05-18 17:02:00,
2013-05-18 12:07:00,60.7,55.2,29.97,SSE,149,2.0,5.0,82,0.00,,BKN085,0.13,195.00,VWS V14.01,2013-05-18 17:07:00,
2013-05-18 12:12:00,60.9,55.4,29.97,SSW,192,0.0,7.0,82,0.00,,BKN085,0.13,221.00,VWS V14.01,2013-05-18 17:12:00,
2013-05-18 12:17:00,61.2,56.0,29.97,South,187,0.0,7.0,83,0.00,,BKN085,0.13,225.00,VWS V14.01,2013-05-18 17:17:00,
2013-05-18 12:22:00,61.4,55.9,29.97,South,191,4.0,7.0,82,0.00,,BKN085,0.13,260.00,VWS V14.01,2013-05-18 17:22:00,
2013-05-18 12:27:00,61.6,56.1,29.97,SSW,202,4.0,7.0,82,0.00,,BKN085,0.13,218.00,VWS V14.01,2013-05-18 17:27:00,
2013-05-18 12:32:00,61.8,56.2,29.96,SE,134,1.0,4.0,82,0.00,,BKN085,0.13,206.00,VWS V14.01,2013-05-18 17:32:00,
2013-05-18 12:37:00,61.9,56.3,29.96,SE,135,0.0,4.0,82,0.00,,BKN085,0.13,204.00,VWS V14.01,2013-05-18 17:37:00,
2013-05-18 12:42:00,62.0,56.5,29.96,South,189,0.0,4.0,82,0.00,,BKN085,0.13,162.00,VWS V14.01,2013-05-18 17:42:00,
2013-05-18 12:47:00,62.1,56.2,29.95,SSE,151,2.0,4.0,81,0.00,,BKN085,0.13,116.00,VWS V14.01,2013-05-18 17:47:00,
2013-05-18 12:52:00,62.1,56.9,29.95,South,184,1.0,4.0,83,0.00,,BKN085,0.13,156.00,VWS V14.01,2013-05-18 17:52:00,
2013-05-18 12:57:00,61.9,56.7,29.93,East,94,2.0,5.0,83,0.00,,BKN085,0.13,176.00,VWS V14.01,2013-05-18 17:57:00,
2013-05-18 13:02:00,61.8,56.6,29.93,ESE,103,2.0,4.0,83,0.00,,-RA,0.13,171.00,VWS V14.01,2013-05-18 18:02:00,
2013-05-18 13:07:00,61.9,57.0,29.92,ESE,114,1.0,4.0,84,0.00,,-RA,0.13,160.00,VWS V14.01,2013-05-18 18:07:00,
2013-05-18 13:12:00,61.9,57.0,29.91,ESE,103,1.0,4.0,84,0.00,,-RA,0.13,176.00,VWS V14.01,2013-05-18 18:12:00,
2013-05-18 13:17:00,61.9,57.3,29.90,ESE,123,3.0,8.0,85,0.00,,-RA,0.13,199.00,VWS V14.01,2013-05-18 18:17:00,
2013-05-18 13:22:00,62.0,57.5,29.89,ESE,111,4.0,8.0,85,0.00,,-RA,0.13,195.00,VWS V14.01,2013-05-18 18:22:00,
2013-05-18 13:27:00,62.2,57.6,29.88,East,99,2.0,8.0,85,0.00,,-RA,0.13,272.00,VWS V14.01,2013-05-18 18:27:00,
2013-05-18 13:32:00,62.6,57.7,29.87,SE,136,4.0,7.0,84,0.00,,-RA,0.13,295.00,VWS V14.01,2013-05-18 18:32:00,
2013-05-18 13:37:00,63.2,58.3,29.87,SSE,162,1.0,7.0,84,0.00,,-RA,0.13,290.00,VWS V14.01,2013-05-18 18:37:00,
2013-05-18 13:42:00,63.7,58.8,29.87,ESE,119,2.0,7.0,84,0.00,,-RA,0.13,301.00,VWS V14.01,2013-05-18 18:42:00,
2013-05-18 13:47:00,64.2,58.6,29.86,SSE,156,3.0,8.0,82,0.00,,-RA,0.13,318.00,VWS V14.01,2013-05-18 18:47:00,
2013-05-18 13:52:00,64.6,59.0,29.87,SE,131,2.0,8.0,82,0.00,,-RA,0.13,311.00,VWS V14.01,2013-05-18 18:52:00,
2013-05-18 13:57:00,65.2,59.6,29.87,SE,128,3.0,10.0,82,0.00,,-RA,0.13,387.00,VWS V14.01,2013-05-18 18:57:00,
2013-05-18 14:02:00,65.6,59.6,29.88,ESE,109,2.0,10.0,81,0.00,,FEW034,0.13,452.00,VWS V14.01,2013-05-18 19:02:00,
2013-05-18 14:07:00,66.3,60.3,29.88,SE,140,3.0,12.0,81,0.00,,FEW034,0.13,564.00,VWS V14.01,2013-05-18 19:07:00,
2013-05-18 14:12:00,66.9,60.2,29.88,SSE,164,9.0,12.0,79,0.00,,FEW034,0.13,635.00,VWS V14.01,2013-05-18 19:12:00,
2013-05-18 14:17:00,67.5,60.4,29.88,SE,130,1.0,12.0,78,0.00,,FEW034,0.13,603.00,VWS V14.01,2013-05-18 19:17:00,
2013-05-18 14:22:00,68.0,60.5,29.88,SE,126,2.0,12.0,77,0.00,,FEW034,0.13,566.00,VWS V14.01,2013-05-18 19:22:00,
2013-05-18 14:27:00,68.4,60.9,29.88,ESE,119,2.0,12.0,77,0.00,,FEW034,0.13,490.00,VWS V14.01,2013-05-18 19:27:00,
2013-05-18 14:32:00,68.9,61.4,29.87,ESE,120,2.0,7.0,77,0.00,,FEW034,0.13,455.00,VWS V14.01,2013-05-18 19:32:00,
2013-05-18 14:37:00,69.3,61.4,29.87,East,101,5.0,7.0,76,0.00,,FEW034,0.13,636.00,VWS V14.01,2013-05-18 19:37:00,
2013-05-18 14:42:00,69.6,61.3,29.87,SSE,157,3.0,7.0,75,0.00,,FEW034,0.13,547.00,VWS V14.01,2013-05-18 19:42:00,
2013-05-18 14:47:00,70.1,61.8,29.86,South,182,2.0,8.0,75,0.00,,FEW034,0.13,592.00,VWS V14.01,2013-05-18 19:47:00,
2013-05-18 14:52:00,70.6,62.7,29.86,SSE,156,2.0,10.0,76,0.00,,FEW034,0.13,570.00,VWS V14.01,2013-05-18 19:52:00,
2013-05-18 14:57:00,71.1,62.4,29.86,SE,132,6.0,10.0,74,0.00,,FEW034,0.13,631.00,VWS V14.01,2013-05-18 19:57:00,
2013-05-18 15:02:00,71.6,62.9,29.86,SE,145,6.0,7.0,74,0.00,,CLR,0.13,821.00,VWS V14.01,2013-05-18 20:02:00,
2013-05-18 15:07:00,72.6,63.1,29.86,SSE,167,2.0,8.0,72,0.00,,CLR,0.13,854.00,VWS V14.01,2013-05-18 20:07:00,
2013-05-18 15:12:00,73.7,63.3,29.85,SE,130,4.0,8.0,70,0.00,,CLR,0.13,800.00,VWS V14.01,2013-05-18 20:12:00,
2013-05-18 15:17:00,74.2,63.4,29.85,South,186,14.0,15.0,69,0.00,,CLR,0.13,765.00,VWS V14.01,2013-05-18 20:17:00,
2013-05-18 15:22:00,74.6,63.8,29.85,SSE,159,5.0,15.0,69,0.00,,CLR,0.13,765.00,VWS V14.01,2013-05-18 20:22:00,
2013-05-18 15:27:00,74.8,63.5,29.85,SSW,193,16.0,17.0,68,0.00,,CLR,0.13,712.00,VWS V14.01,2013-05-18 20:27:00,
2013-05-18 15:33:00,75.1,64.2,29.85,South,173,8.0,11.0,69,0.00,,CLR,0.13,735.00,VWS V14.01,2013-05-18 20:33:00,
2013-05-18 15:38:00,75.3,63.6,29.85,SE,130,5.0,13.0,67,0.00,,CLR,0.13,745.00,VWS V14.01,2013-05-18 20:38:00,
2013-05-18 15:43:00,75.6,64.3,29.85,South,175,4.0,14.0,68,0.00,,CLR,0.13,694.00,VWS V14.01,2013-05-18 20:43:00,
2013-05-18 15:48:00,75.9,63.7,29.85,South,186,7.0,14.0,66,0.00,,CLR,0.13,649.00,VWS V14.01,2013-05-18 20:48:00,
2013-05-18 15:53:00,75.7,63.1,29.85,SSE,148,3.0,14.0,65,0.00,,CLR,0.13,645.00,VWS V14.01,2013-05-18 20:53:00,
2013-05-18 15:58:00,76.2,64.4,29.85,South,183,7.0,14.0,67,0.00,,CLR,0.13,663.00,VWS V14.01,2013-05-18 20:58:00,
2013-05-18 16:03:00,76.4,63.8,29.85,SSE,152,8.0,18.0,65,0.00,,CLR,0.13,645.00,VWS V14.01,2013-05-18 21:03:00,
2013-05-18 16:18:00,76.7,63.6,29.85,SE,130,3.0,3.0,64,0.00,,,0.13,599.00,VWS V14.01,2013-05-18 21:18:00,
2013-05-18 16:23:00,76.7,63.6,29.85,South,170,12.0,12.0,64,0.00,,CLR,0.13,633.00,VWS V14.01,2013-05-18 21:23:00,
2013-05-18 16:28:00,76.8,63.3,29.84,South,188,7.0,18.0,63,0.00,,CLR,0.13,580.00,VWS V14.01,2013-05-18 21:28:00,
2013-05-18 16:33:00,77.0,63.9,29.85,SSE,168,13.0,18.0,64,0.00,,CLR,0.13,575.00,VWS V14.01,2013-05-18 21:33:00,
2013-05-18 16:38:00,77.3,64.2,29.84,South,176,4.0,18.0,64,0.00,,CLR,0.13,548.00,VWS V14.01,2013-05-18 21:38:00,
2013-05-18 16:43:00,77.3,63.3,29.85,South,169,9.0,18.0,62,0.00,,CLR,0.13,519.00,VWS V14.01,2013-05-18 21:43:00,
2013-05-18 16:48:00,77.3,64.2,29.84,South,178,8.0,18.0,64,0.00,,CLR,0.13,524.00,VWS V14.01,2013-05-18 21:48:00,
2013-05-18 16:53:00,77.5,63.9,29.84,SE,126,7.0,18.0,63,0.00,,CLR,0.13,459.00,VWS V14.01,2013-05-18 21:53:00,
2013-05-18 16:58:00,77.4,62.9,29.84,South,182,4.0,18.0,61,0.00,,CLR,0.13,432.00,VWS V14.01,2013-05-18 21:58:00,
2013-05-18 17:03:00,77.4,63.4,29.84,SSE,156,2.0,12.0,62,0.00,,CLR,0.13,374.00,VWS V14.01,2013-05-18 22:03:00,
2013-05-18 17:08:00,77.4,63.4,29.84,SSW,194,7.0,13.0,62,0.00,,CLR,0.13,380.00,VWS V14.01,2013-05-18 22:08:00,
2013-05-18 17:13:00,77.3,63.3,29.84,SSE,165,6.0,14.0,62,0.00,,CLR,0.13,418.00,VWS V14.01,2013-05-18 22:13:00,
2013-05-18 17:18:00,77.3,63.3,29.84,SE,134,4.0,15.0,62,0.00,,CLR,0.13,422.00,VWS V14.01,2013-05-18 22:18:00,
2013-05-18 17:23:00,77.5,63.5,29.84,SSE,150,2.0,15.0,62,0.00,,CLR,0.13,394.00,VWS V14.01,2013-05-18 22:23:00,
2013-05-18 17:28:00,77.6,64.0,29.84,South,182,5.0,15.0,63,0.00,,CLR,0.13,448.00,VWS V14.01,2013-05-18 22:28:00,
2013-05-18 17:33:00,77.7,63.2,29.84,SSE,148,2.0,14.0,61,0.00,,CLR,0.13,404.00,VWS V14.01,2013-05-18 22:33:00,
2013-05-18 17:38:00,77.8,63.3,29.84,South,180,3.0,14.0,61,0.00,,CLR,0.13,408.00,VWS V14.01,2013-05-18 22:38:00,
2013-05-18 17:43:00,78.0,63.5,29.84,SSE,164,3.0,14.0,61,0.00,,CLR,0.13,394.00,VWS V14.01,2013-05-18 22:43:00,
2013-05-18 17:48:00,78.2,63.2,29.84,South,182,11.0,15.0,60,0.00,,CLR,0.13,171.00,VWS V14.01,2013-05-18 22:48:00,
2013-05-18 17:53:00,77.8,63.3,29.84,South,190,8.0,15.0,61,0.00,,CLR,0.13,304.00,VWS V14.01,2013-05-18 22:53:00,
2013-05-18 17:58:00,77.9,63.8,29.84,South,186,8.0,15.0,62,0.00,,CLR,0.13,383.00,VWS V14.01,2013-05-18 22:58:00,
2013-05-18 18:03:00,78.1,63.1,29.83,SSE,150,3.0,6.0,60,0.00,,BKN050,0.13,322.00,VWS V14.01,2013-05-18 23:03:00,
2013-05-18 18:08:00,77.8,63.8,29.83,SE,127,2.0,9.0,62,0.00,,BKN050,0.13,346.00,VWS V14.01,2013-05-18 23:08:00,
2013-05-18 18:13:00,77.8,63.8,29.83,SE,140,4.0,9.0,62,0.00,,BKN050,0.13,169.00,VWS V14.01,2013-05-18 23:13:00,
2013-05-18 18:18:00,77.5,63.9,29.83,SSE,152,2.0,9.0,63,0.00,,BKN050,0.13,130.00,VWS V14.01,2013-05-18 23:18:00,
2013-05-18 18:23:00,77.3,63.3,29.83,SE,140,2.0,10.0,62,0.00,,BKN050,0.13,171.00,VWS V14.01,2013-05-18 23:23:00,
2013-05-18 18:28:00,77.1,63.5,29.83,SE,124,1.0,10.0,63,0.00,,BKN050,0.13,98.00,VWS V14.01,2013-05-18 23:28:00,
2013-05-18 18:33:00,77.2,64.5,29.83,South,173,1.0,4.0,65,0.00,,BKN050,0.13,216.00,VWS V14.01,2013-05-18 23:33:00,
2013-05-18 18:38:00,77.4,63.4,29.83,SSE,156,3.0,9.0,62,0.00,,BKN050,0.13,221.00,VWS V14.01,2013-05-18 23:38:00,
2013-05-18 18:43:00,77.5,63.9,29.83,South,178,2.0,9.0,63,0.00,,BKN050,0.13,206.00,VWS V14.01,2013-05-18 23:43:00,
2013-05-18 18:48:00,77.6,63.6,29.83,South,174,7.0,9.0,62,0.00,,BKN050,0.13,214.00,VWS V14.01,2013-05-18 23:48:00,
2013-05-18 18:53:00,77.7,63.7,29.83,SSE,168,1.0,9.0,62,0.00,,BKN050,0.13,97.00,VWS V14.01,2013-05-18 23:53:00,
2013-05-18 18:58:00,77.5,63.5,29.83,South,179,0.0,9.0,62,0.00,,BKN050,0.13,93.00,VWS V14.01,2013-05-18 23:58:00,
2013-05-18 19:03:00,77.2,63.6,29.83,South,184,1.0,4.0,63,0.00,,FEW055,0.13,88.00,VWS V14.01,2013-05-19 00:03:00,
2013-05-18 19:08:00,77.0,63.9,29.83,South,184,0.0,4.0,64,0.00,,FEW055,0.13,97.00,VWS V14.01,2013-05-19 00:08:00,
2013-05-18 19:13:00,76.8,63.7,29.83,SE,139,1.0,4.0,64,0.00,,FEW055,0.13,65.00,VWS V14.01,2013-05-19 00:13:00,
2013-05-18 19:18:00,76.7,63.6,29.84,SSE,167,0.0,4.0,64,0.00,,FEW055,0.13,51.00,VWS V14.01,2013-05-19 00:18:00,
2013-05-18 19:23:00,76.5,63.4,29.84,South,186,1.0,4.0,64,0.00,,FEW055,0.13,32.00,VWS V14.01,2013-05-19 00:23:00,
2013-05-18 19:28:00,76.3,63.7,29.84,South,186,0.0,4.0,65,0.00,,FEW055,0.13,30.00,VWS V14.01,2013-05-19 00:28:00,
2013-05-18 19:33:00,76.2,63.6,29.84,South,186,0.0,1.0,65,0.00,,FEW055,0.13,21.00,VWS V14.01,2013-05-19 00:33:00,
2013-05-18 19:38:00,76.0,63.4,29.84,South,184,0.0,2.0,65,0.00,,FEW055,0.13,14.00,VWS V14.01,2013-05-19 00:38:00,
2013-05-18 19:43:00,75.8,63.6,29.84,South,184,0.0,2.0,66,0.00,,FEW055,0.13,11.00,VWS V14.01,2013-05-19 00:43:00,
2013-05-18 19:48:00,75.6,63.5,29.84,South,184,1.0,3.0,66,0.00,,FEW055,0.13,9.00,VWS V14.01,2013-05-19 00:48:00,
2013-05-18 19:53:00,75.5,63.4,29.84,South,184,0.0,3.0,66,0.00,,FEW055,0.13,7.00,VWS V14.01,2013-05-19 00:53:00,
2013-05-18 19:58:00,75.4,63.3,29.84,South,184,0.0,3.0,66,0.00,,FEW055,0.13,5.00,VWS V14.01,2013-05-19 00:58:00,
2013-05-18 20:03:00,75.3,63.6,29.84,South,184,1.0,2.0,67,0.00,,OVC065,0.13,5.00,VWS V14.01,2013-05-19 01:03:00,
2013-05-18 20:08:00,75.2,63.5,29.84,South,184,0.0,2.0,67,0.00,,OVC065,0.13,0.00,VWS V14.01,2013-05-19 01:08:00,
2013-05-18 20:13:00,75.1,63.4,29.84,South,184,0.0,2.0,67,0.00,,OVC065,0.13,5.00,VWS V14.01,2013-05-19 01:13:00,
2013-05-18 20:18:00,75.0,63.3,29.84,South,184,1.0,2.0,67,0.00,,OVC065,0.13,5.00,VWS V14.01,2013-05-19 01:18:00,
2013-05-18 20:23:00,74.8,63.1,29.84,SE,132,1.0,3.0,67,0.00,,OVC065,0.13,0.00,VWS V14.01,2013-05-19 01:23:00,
2013-05-18 20:28:00,74.8,63.1,29.83,SE,132,1.0,3.0,67,0.00,,OVC065,0.13,0.00,VWS V14.01,2013-05-19 01:28:00,
2013-05-18 20:33:00,74.7,63.5,29.83,SE,132,0.0,1.0,68,0.00,,OVC065,0.13,0.00,VWS V14.01,2013-05-19 01:33:00,
2013-05-18 20:38:00,74.5,63.3,29.83,SE,132,0.0,1.0,68,0.00,,OVC065,0.13,0.00,VWS V14.01,2013-05-19 01:38:00,
2013-05-18 20:43:00,74.4,63.6,29.83,SE,132,0.0,1.0,69,0.00,,OVC065,0.13,0.00,VWS V14.01,2013-05-19 01:43:00,
2013-05-18 20:48:00,74.1,63.3,29.83,SE,132,1.0,2.0,69,0.00,,OVC065,0.13,0.00,VWS V14.01,2013-05-19 01:48:00,
2013-05-18 20:53:00,73.9,63.5,29.83,SE,132,0.0,2.0,70,0.00,,OVC065,0.13,0.00,VWS V14.01,2013-05-19 01:53:00,
2013-05-18 20:58:00,73.7,63.3,29.83,SE,132,1.0,2.0,70,0.00,,OVC065,0.13,0.00,VWS V14.01,2013-05-19 01:58:00,
2013-05-18 21:03:00,73.5,63.5,29.83,SE,130,2.0,3.0,71,0.00,,BKN085,0.13,0.00,VWS V14.01,2013-05-19 02:03:00,
2013-05-18 21:08:00,73.4,63.4,29.82,SE,130,1.0,3.0,71,0.00,,BKN085,0.13,0.00,VWS V14.01,2013-05-19 02:08:00,
2013-05-18 21:13:00,73.3,63.3,29.82,SE,130,1.0,3.0,71,0.00,,BKN085,0.13,0.00,VWS V14.01,2013-05-19 02:13:00,
2013-05-18 21:18:00,73.4,63.4,29.82,ESE,121,1.0,3.0,71,0.00,,BKN085,0.13,0.00,VWS V14.01,2013-05-19 02:18:00,
2013-05-18 21:23:00,73.2,63.6,29.82,ESE,121,2.0,3.0,72,0.00,,BKN085,0.13,0.00,VWS V14.01,2013-05-19 02:23:00,
2013-05-18 21:28:00,72.9,63.3,29.82,ESE,121,2.0,3.0,72,0.00,,BKN085,0.13,0.00,VWS V14.01,2013-05-19 02:28:00,
2013-05-18 21:33:00,72.8,63.3,29.82,ESE,121,1.0,2.0,72,0.00,,BKN085,0.13,0.00,VWS V14.01,2013-05-19 02:33:00,
2013-05-18 21:38:00,72.7,63.2,29.82,ESE,121,3.0,3.0,72,0.00,,BKN085,0.13,0.00,VWS V14.01,2013-05-19 02:38:00,
2013-05-18 21:43:00,72.6,63.5,29.82,ESE,121,2.0,3.0,73,0.00,,BKN085,0.13,0.00,VWS V14.01,2013-05-19 02:43:00,
2013-05-18 21:48:00,72.4,63.3,29.81,ESE,121,0.0,3.0,73,0.00,,BKN085,0.13,0.00,VWS V14.01,2013-05-19 02:48:00,
2013-05-18 21:53:00,72.2,63.1,29.81,ESE,121,1.0,3.0,73,0.00,,BKN085,0.13,0.00,VWS V14.01,2013-05-19 02:53:00,
2013-05-18 21:58:00,72.0,63.3,29.81,ESE,121,0.0,3.0,74,0.00,,BKN085,0.13,0.00,VWS V14.01,2013-05-19 02:58:00,
2013-05-18 22:03:00,71.7,63.0,29.81,ESE,121,0.0,1.0,74,0.00,,SCT085,0.13,0.00,VWS V14.01,2013-05-19 03:03:00,
2013-05-18 22:08:00,71.3,63.0,29.81,ESE,121,1.0,1.0,75,0.00,,SCT085,0.13,0.00,VWS V14.01,2013-05-19 03:08:00,
2013-05-18 22:13:00,71.1,62.8,29.81,ESE,121,1.0,1.0,75,0.00,,SCT085,0.13,0.00,VWS V14.01,2013-05-19 03:13:00,
2013-05-18 22:18:00,70.8,62.9,29.81,ESE,121,0.0,1.0,76,0.00,,SCT085,0.13,0.00,VWS V14.01,2013-05-19 03:18:00,
2013-05-18 22:23:00,70.6,62.7,29.81,ESE,121,0.0,1.0,76,0.00,,SCT085,0.13,0.00,VWS V14.01,2013-05-19 03:23:00,
2013-05-18 22:28:00,70.4,62.8,29.81,ESE,121,0.0,1.0,77,0.00,,SCT085,0.13,0.00,VWS V14.01,2013-05-19 03:28:00,
2013-05-18 22:33:00,70.3,62.8,29.81,ESE,121,0.0,1.0,77,0.00,,SCT085,0.13,0.00,VWS V14.01,2013-05-19 03:33:00,
2013-05-18 22:38:00,70.1,62.6,29.81,ESE,121,0.0,1.0,77,0.00,,SCT085,0.13,0.00,VWS V14.01,2013-05-19 03:38:00,
2013-05-18 22:43:00,69.9,62.4,29.81,ESE,121,0.0,1.0,77,0.00,,SCT085,0.13,0.00,VWS V14.01,2013-05-19 03:43:00,
2013-05-18 22:48:00,69.7,62.5,29.81,ESE,121,0.0,1.0,78,0.00,,SCT085,0.13,0.00,VWS V14.01,2013-05-19 03:48:00,
2013-05-18 22:53:00,69.5,62.3,29.81,ESE,121,0.0,1.0,78,0.00,,SCT085,0.13,0.00,VWS V14.01,2013-05-19 03:53:00,
2013-05-18 22:58:00,69.3,62.5,29.81,ESE,121,0.0,1.0,79,0.00,,SCT085,0.13,0.00,VWS V14.01,2013-05-19 03:58:00,
2013-05-18 23:01:00,69.2,62.4,29.80,ESE,121,0.0,1.0,79,0.00,,CLR,0.13,0.00,VWS V14.01,2013-05-19 04:01:00,
2013-05-18 23:06:00,69.1,62.3,29.81,ESE,121,1.0,1.0,79,0.00,,CLR,0.13,0.00,VWS V14.01,2013-05-19 04:06:00,
2013-05-18 23:11:00,68.9,62.5,29.81,ESE,121,0.0,1.0,80,0.00,,CLR,0.13,0.00,VWS V14.01,2013-05-19 04:11:00,
2013-05-18 23:16:00,68.7,62.3,29.80,ESE,121,0.0,1.0,80,0.00,,CLR,0.13,0.00,VWS V14.01,2013-05-19 04:16:00,
2013-05-18 23:21:00,68.6,62.2,29.80,ESE,121,0.0,2.0,80,0.00,,CLR,0.13,0.00,VWS V14.01,2013-05-19 04:21:00,
2013-05-18 23:26:00,68.5,62.5,29.80,ESE,111,1.0,2.0,81,0.00,,CLR,0.13,0.00,VWS V14.01,2013-05-19 04:26:00,
2013-05-18 23:31:00,68.3,62.2,29.79,ESE,111,1.0,1.0,81,0.00,,CLR,0.13,0.00,VWS V14.01,2013-05-19 04:31:00,
2013-05-18 23:36:00,68.2,62.2,29.79,ESE,111,0.0,1.0,81,0.00,,CLR,0.13,0.00,VWS V14.01,2013-05-19 04:36:00,
2013-05-18 23:41:00,68.0,62.3,29.79,ESE,111,0.0,1.0,82,0.00,,CLR,0.13,0.00,VWS V14.01,2013-05-19 04:41:00,
2013-05-18 23:46:00,67.8,62.1,29.79,ESE,111,0.0,2.0,82,0.00,,CLR,0.13,0.00,VWS V14.01,2013-05-19 04:46:00,
2013-05-18 23:51:00,67.8,62.1,29.80,ESE,111,1.0,2.0,82,0.00,,CLR,0.13,0.00,VWS V14.01,2013-05-19 04:51:00,
2013-05-18 23:56:00,67.7,62.0,29.79,ESE,111,0.0,2.0,82,0.00,,CLR,0.13,0.00,VWS V14.01,2013-05-19 04:56:00,